Year,Month,Day,Hour,Minute,Value (Times are PST for temperature in C)
2007,08,29,00,00,14.50
2007,08,29,00,01,14.40
2007,08,29,00,02,14.40
2007,08,29,00,03,14.40
2007,08,29,00,04,14.40
2007,08,29,00,05,14.40
2007,08,29,00,06,14.40
2007,08,29,00,07,14.30
2007,08,29,00,08,14.30
2007,08,29,00,09,14.30
2007,08,29,00,10,14.30
2007,08,29,00,11,14.30
2007,08,29,00,12,14.30
2007,08,29,00,13,14.30
2007,08,29,00,14,14.20
2007,08,29,00,15,14.20
2007,08,29,00,16,14.20
2007,08,29,00,17,14.20
2007,08,29,00,18,14.20
2007,08,29,00,19,14.20
2007,08,29,00,20,14.20
2007,08,29,00,21,14.20
2007,08,29,00,22,14.20
2007,08,29,00,23,14.20
2007,08,29,00,24,14.20
2007,08,29,00,25,14.20
2007,08,29,00,26,14.20
2007,08,29,00,27,14.20
2007,08,29,00,28,14.20
2007,08,29,00,29,14.20
2007,08,29,00,30,14.20
2007,08,29,00,31,14.20
2007,08,29,00,32,14.20
2007,08,29,00,33,14.20
2007,08,29,00,34,14.20
2007,08,29,00,35,14.20
2007,08,29,00,36,14.20
2007,08,29,00,37,14.20
2007,08,29,00,38,14.20
2007,08,29,00,39,14.20
2007,08,29,00,40,14.20
2007,08,29,00,41,14.20
2007,08,29,00,42,14.10
2007,08,29,00,43,14.10
2007,08,29,00,44,14.10
2007,08,29,00,45,14.10
2007,08,29,00,46,14.10
2007,08,29,00,47,14.10
2007,08,29,00,48,14.10
2007,08,29,00,49,14.10
2007,08,29,00,50,14.10
2007,08,29,00,51,14.10
2007,08,29,00,52,14.10
2007,08,29,00,53,14.10
2007,08,29,00,54,14.10
2007,08,29,00,55,14.10
2007,08,29,00,56,14.10
2007,08,29,00,57,14.10
2007,08,29,00,58,14.10
2007,08,29,00,59,14.10
2007,08,29,01,00,14.00
2007,08,29,01,01,14.00
2007,08,29,01,02,14.00
2007,08,29,01,03,14.00
2007,08,29,01,04,14.00
2007,08,29,01,05,14.00
2007,08,29,01,06,14.00
2007,08,29,01,07,14.00
2007,08,29,01,08,14.00
2007,08,29,01,09,13.90
2007,08,29,01,10,13.90
2007,08,29,01,11,13.90
2007,08,29,01,12,13.90
2007,08,29,01,13,13.90
2007,08,29,01,14,13.90
2007,08,29,01,15,13.90
2007,08,29,01,16,13.90
2007,08,29,01,17,13.90
2007,08,29,01,18,13.90
2007,08,29,01,19,13.90
2007,08,29,01,20,13.90
2007,08,29,01,21,13.80
2007,08,29,01,22,13.80
2007,08,29,01,23,13.80
2007,08,29,01,24,13.80
2007,08,29,01,25,13.80
2007,08,29,01,26,13.80
2007,08,29,01,27,13.80
2007,08,29,01,28,13.80
2007,08,29,01,29,13.80
2007,08,29,01,30,13.80
2007,08,29,01,31,13.70
2007,08,29,01,32,13.70
2007,08,29,01,33,13.70
2007,08,29,01,34,13.70
2007,08,29,01,35,13.70
2007,08,29,01,36,13.70
2007,08,29,01,37,13.70
2007,08,29,01,38,13.70
2007,08,29,01,39,13.70
2007,08,29,01,40,13.70
2007,08,29,01,41,13.70
2007,08,29,01,42,13.70
2007,08,29,01,43,13.70
2007,08,29,01,44,13.60
2007,08,29,01,45,13.60
2007,08,29,01,46,13.60
2007,08,29,01,47,13.60
2007,08,29,01,48,13.60
2007,08,29,01,49,13.60
2007,08,29,01,50,13.60
2007,08,29,01,51,13.60
2007,08,29,01,52,13.60
2007,08,29,01,53,13.50
2007,08,29,01,54,13.50
2007,08,29,01,55,13.50
2007,08,29,01,56,13.50
2007,08,29,01,57,13.50
2007,08,29,01,58,13.50
2007,08,29,01,59,13.50
2007,08,29,02,00,13.50
2007,08,29,02,01,13.50
2007,08,29,02,02,13.50
2007,08,29,02,03,13.50
2007,08,29,02,04,13.40
2007,08,29,02,05,13.40
2007,08,29,02,06,13.40
2007,08,29,02,07,13.40
2007,08,29,02,08,13.40
2007,08,29,02,09,13.40
2007,08,29,02,10,13.40
2007,08,29,02,11,13.40
2007,08,29,02,12,13.40
2007,08,29,02,13,13.40
2007,08,29,02,14,13.40
2007,08,29,02,15,13.40
2007,08,29,02,16,13.30
2007,08,29,02,17,13.30
2007,08,29,02,18,13.30
2007,08,29,02,19,13.30
2007,08,29,02,20,13.30
2007,08,29,02,21,13.30
2007,08,29,02,22,13.30
2007,08,29,02,23,13.30
2007,08,29,02,24,13.30
2007,08,29,02,25,13.30
2007,08,29,02,26,13.30
2007,08,29,02,27,13.20
2007,08,29,02,28,13.20
2007,08,29,02,29,13.20
2007,08,29,02,30,13.20
2007,08,29,02,31,13.20
2007,08,29,02,32,13.20
2007,08,29,02,33,13.20
2007,08,29,02,34,13.20
2007,08,29,02,35,13.20
2007,08,29,02,36,13.20
2007,08,29,02,37,13.20
2007,08,29,02,38,13.20
2007,08,29,02,39,13.20
2007,08,29,02,40,13.20
2007,08,29,02,41,13.20
2007,08,29,02,42,13.20
2007,08,29,02,43,13.20
2007,08,29,02,44,13.20
2007,08,29,02,45,13.20
2007,08,29,02,46,13.20
2007,08,29,02,47,13.20
2007,08,29,02,48,13.20
2007,08,29,02,49,13.20
2007,08,29,02,50,13.20
2007,08,29,02,51,13.20
2007,08,29,02,52,13.20
2007,08,29,02,53,13.10
2007,08,29,02,54,13.10
2007,08,29,02,55,13.10
2007,08,29,02,56,13.10
2007,08,29,02,57,13.10
2007,08,29,02,58,13.10
2007,08,29,02,59,13.00
2007,08,29,03,00,13.00
2007,08,29,03,01,13.00
2007,08,29,03,02,12.90
2007,08,29,03,03,12.90
2007,08,29,03,04,12.90
2007,08,29,03,05,12.90
2007,08,29,03,06,12.90
2007,08,29,03,07,12.90
2007,08,29,03,08,12.90
2007,08,29,03,09,12.90
2007,08,29,03,10,12.80
2007,08,29,03,11,12.80
2007,08,29,03,12,12.80
2007,08,29,03,13,12.80
2007,08,29,03,14,12.80
2007,08,29,03,15,12.80
2007,08,29,03,16,12.90
2007,08,29,03,17,12.90
2007,08,29,03,18,12.90
2007,08,29,03,19,12.90
2007,08,29,03,20,12.90
2007,08,29,03,21,12.90
2007,08,29,03,22,12.90
2007,08,29,03,23,12.90
2007,08,29,03,24,12.90
2007,08,29,03,25,12.90
2007,08,29,03,26,12.90
2007,08,29,03,27,12.90
2007,08,29,03,28,12.90
2007,08,29,03,29,12.90
2007,08,29,03,30,12.90
2007,08,29,03,31,12.90
2007,08,29,03,32,12.90
2007,08,29,03,33,12.90
2007,08,29,03,34,12.90
2007,08,29,03,35,12.90
2007,08,29,03,36,12.90
2007,08,29,03,37,12.80
2007,08,29,03,38,12.80
2007,08,29,03,39,12.80
2007,08,29,03,40,12.80
2007,08,29,03,41,12.80
2007,08,29,03,42,12.80
2007,08,29,03,43,12.80
2007,08,29,03,44,12.70
2007,08,29,03,45,12.70
2007,08,29,03,46,12.70
2007,08,29,03,47,12.70
2007,08,29,03,48,12.70
2007,08,29,03,49,12.70
2007,08,29,03,50,12.70
2007,08,29,03,51,12.70
2007,08,29,03,52,12.60
2007,08,29,03,53,12.60
2007,08,29,03,54,12.60
2007,08,29,03,55,12.60
2007,08,29,03,56,12.60
2007,08,29,03,57,12.60
2007,08,29,03,58,12.60
2007,08,29,03,59,12.60
2007,08,29,04,00,12.60
2007,08,29,04,01,12.60
2007,08,29,04,02,12.60
2007,08,29,04,03,12.60
2007,08,29,04,04,12.60
2007,08,29,04,05,12.60
2007,08,29,04,06,12.50
2007,08,29,04,07,12.60
2007,08,29,04,08,12.50
2007,08,29,04,09,12.50
2007,08,29,04,10,12.50
2007,08,29,04,11,12.50
2007,08,29,04,12,12.50
2007,08,29,04,13,12.50
2007,08,29,04,14,12.50
2007,08,29,04,15,12.50
2007,08,29,04,16,12.50
2007,08,29,04,17,12.50
2007,08,29,04,18,12.50
2007,08,29,04,19,12.50
2007,08,29,04,20,12.50
2007,08,29,04,21,12.50
2007,08,29,04,22,12.50
2007,08,29,04,23,12.50
2007,08,29,04,24,12.50
2007,08,29,04,25,12.60
2007,08,29,04,26,12.60
2007,08,29,04,27,12.60
2007,08,29,04,28,12.60
2007,08,29,04,29,12.60
2007,08,29,04,30,12.60
2007,08,29,04,31,12.60
2007,08,29,04,32,12.60
2007,08,29,04,33,12.60
2007,08,29,04,34,12.60
2007,08,29,04,35,12.60
2007,08,29,04,36,12.60
2007,08,29,04,37,12.60
2007,08,29,04,38,12.50
2007,08,29,04,39,12.50
2007,08,29,04,40,12.50
2007,08,29,04,41,12.60
2007,08,29,04,42,12.60
2007,08,29,04,43,12.60
2007,08,29,04,44,12.60
2007,08,29,04,45,12.60
2007,08,29,04,46,12.60
2007,08,29,04,47,12.70
2007,08,29,04,48,12.70
2007,08,29,04,49,12.80
2007,08,29,04,50,12.90
2007,08,29,04,51,12.90
2007,08,29,04,52,13.00
2007,08,29,04,53,13.10
2007,08,29,04,54,13.20
2007,08,29,04,55,13.20
2007,08,29,04,56,13.30
2007,08,29,04,57,13.30
2007,08,29,04,58,13.30
2007,08,29,04,59,13.40
2007,08,29,05,00,13.40
2007,08,29,05,01,13.40
2007,08,29,05,02,13.40
2007,08,29,05,03,13.40
2007,08,29,05,04,13.30
2007,08,29,05,05,13.30
2007,08,29,05,06,13.30
2007,08,29,05,07,13.30
2007,08,29,05,08,13.30
2007,08,29,05,09,13.30
2007,08,29,05,10,13.30
2007,08,29,05,11,13.30
2007,08,29,05,12,13.30
2007,08,29,05,13,13.30
2007,08,29,05,14,13.30
2007,08,29,05,15,13.30
2007,08,29,05,16,13.30
2007,08,29,05,17,13.30
2007,08,29,05,18,13.30
2007,08,29,05,19,13.30
2007,08,29,05,20,13.40
2007,08,29,05,21,13.40
2007,08,29,05,22,13.50
2007,08,29,05,23,13.60
2007,08,29,05,24,13.60
2007,08,29,05,25,13.60
2007,08,29,05,26,13.60
2007,08,29,05,27,13.60
2007,08,29,05,28,13.70
2007,08,29,05,29,13.70
2007,08,29,05,30,13.70
2007,08,29,05,31,13.70
2007,08,29,05,32,13.70
2007,08,29,05,33,13.70
2007,08,29,05,34,13.70
2007,08,29,05,35,13.70
2007,08,29,05,36,13.70
2007,08,29,05,37,13.70
2007,08,29,05,38,13.70
2007,08,29,05,39,13.70
2007,08,29,05,40,13.70
2007,08,29,05,41,13.70
2007,08,29,05,42,13.70
2007,08,29,05,43,13.70
2007,08,29,05,44,13.70
2007,08,29,05,45,13.70
2007,08,29,05,46,13.70
2007,08,29,05,47,13.70
2007,08,29,05,48,13.80
2007,08,29,05,49,13.80
2007,08,29,05,50,13.80
2007,08,29,05,51,13.80
2007,08,29,05,52,13.80
2007,08,29,05,53,13.80
2007,08,29,05,54,13.80
2007,08,29,05,55,13.70
2007,08,29,05,56,13.70
2007,08,29,05,57,13.70
2007,08,29,05,58,13.70
2007,08,29,05,59,13.70
2007,08,29,06,00,13.70
2007,08,29,06,01,13.70
2007,08,29,06,02,13.60
2007,08,29,06,03,13.60
2007,08,29,06,04,13.60
2007,08,29,06,05,13.60
2007,08,29,06,06,13.60
2007,08,29,06,07,13.60
2007,08,29,06,08,13.60
2007,08,29,06,09,13.60
2007,08,29,06,10,13.50
2007,08,29,06,11,13.50
2007,08,29,06,12,13.50
2007,08,29,06,13,13.40
2007,08,29,06,14,13.40
2007,08,29,06,15,13.40
2007,08,29,06,16,13.30
2007,08,29,06,17,13.30
2007,08,29,06,18,13.30
2007,08,29,06,19,13.30
2007,08,29,06,20,13.30
2007,08,29,06,21,13.30
2007,08,29,06,22,13.30
2007,08,29,06,23,13.30
2007,08,29,06,24,13.30
2007,08,29,06,25,13.30
2007,08,29,06,26,13.40
2007,08,29,06,27,13.40
2007,08,29,06,28,13.40
2007,08,29,06,29,13.40
2007,08,29,06,30,13.40
2007,08,29,06,31,13.40
2007,08,29,06,32,13.40
2007,08,29,06,33,13.40
2007,08,29,06,34,13.40
2007,08,29,06,35,13.40
2007,08,29,06,36,13.40
2007,08,29,06,37,13.40
2007,08,29,06,38,13.40
2007,08,29,06,39,13.30
2007,08,29,06,40,13.30
2007,08,29,06,41,13.30
2007,08,29,06,42,13.30
2007,08,29,06,43,13.30
2007,08,29,06,44,13.20
2007,08,29,06,45,13.20
2007,08,29,06,46,13.20
2007,08,29,06,47,13.20
2007,08,29,06,48,13.20
2007,08,29,06,49,13.10
2007,08,29,06,50,13.10
2007,08,29,06,51,13.10
2007,08,29,06,52,13.00
2007,08,29,06,53,13.00
2007,08,29,06,54,12.90
2007,08,29,06,55,12.90
2007,08,29,06,56,12.90
2007,08,29,06,57,12.90
2007,08,29,06,58,12.90
2007,08,29,06,59,12.80
2007,08,29,07,00,12.80
2007,08,29,07,01,12.80
2007,08,29,07,02,12.80
2007,08,29,07,03,12.80
2007,08,29,07,04,12.80
2007,08,29,07,05,12.80
2007,08,29,07,06,12.90
2007,08,29,07,07,12.90
2007,08,29,07,08,12.90
2007,08,29,07,09,12.90
2007,08,29,07,10,12.90
2007,08,29,07,11,12.90
2007,08,29,07,12,12.90
2007,08,29,07,13,12.90
2007,08,29,07,14,12.90
2007,08,29,07,15,12.90
2007,08,29,07,16,12.90
2007,08,29,07,17,12.90
2007,08,29,07,18,12.90
2007,08,29,07,19,12.90
2007,08,29,07,20,12.90
2007,08,29,07,21,12.90
2007,08,29,07,22,12.90
2007,08,29,07,23,12.90
2007,08,29,07,24,12.90
2007,08,29,07,25,12.90
2007,08,29,07,26,13.00
2007,08,29,07,27,13.00
2007,08,29,07,28,13.10
2007,08,29,07,29,13.10
2007,08,29,07,30,13.20
2007,08,29,07,31,13.20
2007,08,29,07,32,13.30
2007,08,29,07,33,13.30
2007,08,29,07,34,13.30
2007,08,29,07,35,13.40
2007,08,29,07,36,13.40
2007,08,29,07,37,13.50
2007,08,29,07,38,13.60
2007,08,29,07,39,13.60
2007,08,29,07,40,13.70
2007,08,29,07,41,13.70
2007,08,29,07,42,13.80
2007,08,29,07,43,13.80
2007,08,29,07,44,13.80
2007,08,29,07,45,13.90
2007,08,29,07,46,13.90
2007,08,29,07,47,14.00
2007,08,29,07,48,14.00
2007,08,29,07,49,14.00
2007,08,29,07,50,14.10
2007,08,29,07,51,14.10
2007,08,29,07,52,14.20
2007,08,29,07,53,14.20
2007,08,29,07,54,14.20
2007,08,29,07,55,14.20
2007,08,29,07,56,14.30
2007,08,29,07,57,14.30
2007,08,29,07,58,14.40
2007,08,29,07,59,14.40
2007,08,29,08,00,14.50
2007,08,29,08,01,14.60
2007,08,29,08,02,14.70
2007,08,29,08,03,14.80
2007,08,29,08,04,14.90
2007,08,29,08,05,15.00
2007,08,29,08,06,15.00
2007,08,29,08,07,15.00
2007,08,29,08,08,15.00
2007,08,29,08,09,15.00
2007,08,29,08,10,15.00
2007,08,29,08,11,15.00
2007,08,29,08,12,15.10
2007,08,29,08,13,15.10
2007,08,29,08,14,15.20
2007,08,29,08,15,15.20
2007,08,29,08,16,15.20
2007,08,29,08,17,15.20
2007,08,29,08,18,15.30
2007,08,29,08,19,15.30
2007,08,29,08,20,15.30
2007,08,29,08,21,15.40
2007,08,29,08,22,15.50
2007,08,29,08,23,15.50
2007,08,29,08,24,15.60
2007,08,29,08,25,15.80
2007,08,29,08,26,15.80
2007,08,29,08,27,16.00
2007,08,29,08,28,16.10
2007,08,29,08,29,16.20
2007,08,29,08,30,16.30
2007,08,29,08,31,16.30
2007,08,29,08,32,16.40
2007,08,29,08,33,16.50
2007,08,29,08,34,16.50
2007,08,29,08,35,16.60
2007,08,29,08,36,16.70
2007,08,29,08,37,16.80
2007,08,29,08,38,16.90
2007,08,29,08,39,17.00
2007,08,29,08,40,17.00
2007,08,29,08,41,17.10
2007,08,29,08,42,17.10
2007,08,29,08,43,17.10
2007,08,29,08,44,17.10
2007,08,29,08,45,17.10
2007,08,29,08,46,17.10
2007,08,29,08,47,17.10
2007,08,29,08,48,17.10
2007,08,29,08,49,17.10
2007,08,29,08,50,17.20
2007,08,29,08,51,17.20
2007,08,29,08,52,17.20
2007,08,29,08,53,17.30
2007,08,29,08,54,17.40
2007,08,29,08,55,17.40
2007,08,29,08,56,17.50
2007,08,29,08,57,17.60
2007,08,29,08,58,17.70
2007,08,29,08,59,17.80
2007,08,29,09,00,17.90
2007,08,29,09,01,18.00
2007,08,29,09,02,18.00
2007,08,29,09,03,18.10
2007,08,29,09,04,18.20
2007,08,29,09,05,18.20
2007,08,29,09,06,18.30
2007,08,29,09,07,18.40
2007,08,29,09,08,18.40
2007,08,29,09,09,18.40
2007,08,29,09,10,18.40
2007,08,29,09,11,18.40
2007,08,29,09,12,18.40
2007,08,29,09,13,18.50
2007,08,29,09,14,18.60
2007,08,29,09,15,18.60
2007,08,29,09,16,18.60
2007,08,29,09,17,18.60
2007,08,29,09,18,18.60
2007,08,29,09,19,18.60
2007,08,29,09,20,18.70
2007,08,29,09,21,18.70
2007,08,29,09,22,18.80
2007,08,29,09,23,18.80
2007,08,29,09,24,18.90
2007,08,29,09,25,18.90
2007,08,29,09,26,19.00
2007,08,29,09,27,19.10
2007,08,29,09,28,19.20
2007,08,29,09,29,19.20
2007,08,29,09,30,19.30
2007,08,29,09,31,19.30
2007,08,29,09,32,19.40
2007,08,29,09,33,19.50
2007,08,29,09,34,19.50
2007,08,29,09,35,19.60
2007,08,29,09,36,19.60
2007,08,29,09,37,19.60
2007,08,29,09,38,19.70
2007,08,29,09,39,19.70
2007,08,29,09,40,19.80
2007,08,29,09,41,19.80
2007,08,29,09,42,19.90
2007,08,29,09,43,19.90
2007,08,29,09,44,20.00
2007,08,29,09,45,20.10
2007,08,29,09,46,20.10
2007,08,29,09,47,20.20
2007,08,29,09,48,20.30
2007,08,29,09,49,20.30
2007,08,29,09,50,20.40
2007,08,29,09,51,20.40
2007,08,29,09,52,20.50
2007,08,29,09,53,20.60
2007,08,29,09,54,20.60
2007,08,29,09,55,20.60
2007,08,29,09,56,20.60
2007,08,29,09,57,20.60
2007,08,29,09,58,20.60
2007,08,29,09,59,20.60
2007,08,29,10,00,20.60
2007,08,29,10,01,20.50
2007,08,29,10,02,20.60
2007,08,29,10,03,20.60
2007,08,29,10,04,20.60
2007,08,29,10,05,20.60
2007,08,29,10,06,20.60
2007,08,29,10,07,20.70
2007,08,29,10,08,20.70
2007,08,29,10,09,20.80
2007,08,29,10,10,20.80
2007,08,29,10,11,20.90
2007,08,29,10,12,20.90
2007,08,29,10,13,20.90
2007,08,29,10,14,21.00
2007,08,29,10,15,21.00
2007,08,29,10,16,21.10
2007,08,29,10,17,21.10
2007,08,29,10,18,21.10
2007,08,29,10,19,21.10
2007,08,29,10,20,21.10
2007,08,29,10,21,21.20
2007,08,29,10,22,21.20
2007,08,29,10,23,21.20
2007,08,29,10,24,21.20
2007,08,29,10,25,21.20
2007,08,29,10,26,21.30
2007,08,29,10,27,21.30
2007,08,29,10,28,21.20
2007,08,29,10,29,21.20
2007,08,29,10,30,21.20
2007,08,29,10,31,21.30
2007,08,29,10,32,21.30
2007,08,29,10,33,21.20
2007,08,29,10,34,21.10
2007,08,29,10,35,21.10
2007,08,29,10,36,21.10
2007,08,29,10,37,21.10
2007,08,29,10,38,21.10
2007,08,29,10,39,21.10
2007,08,29,10,40,21.10
2007,08,29,10,41,21.00
2007,08,29,10,42,21.10
2007,08,29,10,43,21.00
2007,08,29,10,44,20.90
2007,08,29,10,45,20.90
2007,08,29,10,46,20.90
2007,08,29,10,47,20.90
2007,08,29,10,48,20.90
2007,08,29,10,49,20.90
2007,08,29,10,50,21.00
2007,08,29,10,51,21.10
2007,08,29,10,52,21.20
2007,08,29,10,53,21.20
2007,08,29,10,54,21.30
2007,08,29,10,55,21.40
2007,08,29,10,56,21.50
2007,08,29,10,57,21.50
2007,08,29,10,58,21.60
2007,08,29,10,59,21.70
2007,08,29,11,00,21.80
2007,08,29,11,01,21.80
2007,08,29,11,02,21.90
2007,08,29,11,03,21.90
2007,08,29,11,04,22.00
2007,08,29,11,05,22.00
2007,08,29,11,06,22.10
2007,08,29,11,07,22.20
2007,08,29,11,08,22.30
2007,08,29,11,09,22.40
2007,08,29,11,10,22.50
2007,08,29,11,11,22.60
2007,08,29,11,12,22.70
2007,08,29,11,13,22.80
2007,08,29,11,14,22.80
2007,08,29,11,15,22.90
2007,08,29,11,16,22.90
2007,08,29,11,17,22.90
2007,08,29,11,18,23.00
2007,08,29,11,19,23.00
2007,08,29,11,20,23.10
2007,08,29,11,21,23.20
2007,08,29,11,22,23.20
2007,08,29,11,23,23.20
2007,08,29,11,24,23.30
2007,08,29,11,25,23.30
2007,08,29,11,26,23.40
2007,08,29,11,27,23.40
2007,08,29,11,28,23.40
2007,08,29,11,29,23.40
2007,08,29,11,30,23.50
2007,08,29,11,31,23.50
2007,08,29,11,32,23.40
2007,08,29,11,33,23.40
2007,08,29,11,34,23.40
2007,08,29,11,35,23.40
2007,08,29,11,36,23.40
2007,08,29,11,37,23.40
2007,08,29,11,38,23.40
2007,08,29,11,39,23.50
2007,08,29,11,40,23.50
2007,08,29,11,41,23.50
2007,08,29,11,42,23.40
2007,08,29,11,43,23.40
2007,08,29,11,44,23.40
2007,08,29,11,45,23.40
2007,08,29,11,46,23.40
2007,08,29,11,47,23.50
2007,08,29,11,48,23.60
2007,08,29,11,49,23.70
2007,08,29,11,50,23.70
2007,08,29,11,51,23.80
2007,08,29,11,52,23.80
2007,08,29,11,53,23.70
2007,08,29,11,54,23.40
2007,08,29,11,55,23.20
2007,08,29,11,56,22.90
2007,08,29,11,57,22.70
2007,08,29,11,58,22.60
2007,08,29,11,59,22.50
2007,08,29,12,00,22.50
2007,08,29,12,01,22.40
2007,08,29,12,02,22.40
2007,08,29,12,03,22.40
2007,08,29,12,04,22.40
2007,08,29,12,05,22.40
2007,08,29,12,06,22.40
2007,08,29,12,07,22.50
2007,08,29,12,08,22.50
2007,08,29,12,09,22.50
2007,08,29,12,10,22.50
2007,08,29,12,11,22.40
2007,08,29,12,12,22.20
2007,08,29,12,13,22.00
2007,08,29,12,14,21.90
2007,08,29,12,15,21.90
2007,08,29,12,16,21.90
2007,08,29,12,17,22.00
2007,08,29,12,18,22.00
2007,08,29,12,19,22.10
2007,08,29,12,20,22.20
2007,08,29,12,21,22.30
2007,08,29,12,22,22.30
2007,08,29,12,23,22.40
2007,08,29,12,24,22.40
2007,08,29,12,25,22.40
2007,08,29,12,26,22.50
2007,08,29,12,27,22.50
2007,08,29,12,28,22.50
2007,08,29,12,29,22.50
2007,08,29,12,30,22.50
2007,08,29,12,31,22.50
2007,08,29,12,32,22.60
2007,08,29,12,33,22.60
2007,08,29,12,34,22.60
2007,08,29,12,35,22.60
2007,08,29,12,36,22.60
2007,08,29,12,37,22.70
2007,08,29,12,38,22.80
2007,08,29,12,39,22.90
2007,08,29,12,40,22.90
2007,08,29,12,41,23.00
2007,08,29,12,42,23.00
2007,08,29,12,43,22.80
2007,08,29,12,44,22.60
2007,08,29,12,45,22.50
2007,08,29,12,46,22.50
2007,08,29,12,47,22.60
2007,08,29,12,48,22.60
2007,08,29,12,49,22.60
2007,08,29,12,50,22.70
2007,08,29,12,51,22.80
2007,08,29,12,52,22.90
2007,08,29,12,53,22.90
2007,08,29,12,54,23.00
2007,08,29,12,55,23.00
2007,08,29,12,56,22.90
2007,08,29,12,57,22.80
2007,08,29,12,58,22.70
2007,08,29,12,59,22.60
2007,08,29,13,00,22.60
2007,08,29,13,01,22.50
2007,08,29,13,02,22.60
2007,08,29,13,03,22.60
2007,08,29,13,04,22.70
2007,08,29,13,05,22.70
2007,08,29,13,06,22.60
2007,08,29,13,07,22.60
2007,08,29,13,08,22.50
2007,08,29,13,09,22.40
2007,08,29,13,10,22.30
2007,08,29,13,11,22.30
2007,08,29,13,12,22.30
2007,08,29,13,13,22.30
2007,08,29,13,14,22.40
2007,08,29,13,15,22.30
2007,08,29,13,16,22.40
2007,08,29,13,17,22.40
2007,08,29,13,18,22.40
2007,08,29,13,19,22.40
2007,08,29,13,20,22.50
2007,08,29,13,21,22.50
2007,08,29,13,22,22.60
2007,08,29,13,23,22.70
2007,08,29,13,24,22.60
2007,08,29,13,25,22.40
2007,08,29,13,26,22.30
2007,08,29,13,27,22.20
2007,08,29,13,28,22.20
2007,08,29,13,29,22.20
2007,08,29,13,30,22.20
2007,08,29,13,31,22.30
2007,08,29,13,32,22.40
2007,08,29,13,33,22.50
2007,08,29,13,34,22.60
2007,08,29,13,35,22.60
2007,08,29,13,36,22.60
2007,08,29,13,37,22.70
2007,08,29,13,38,22.70
2007,08,29,13,39,22.80
2007,08,29,13,40,22.90
2007,08,29,13,41,22.90
2007,08,29,13,42,22.80
2007,08,29,13,43,22.90
2007,08,29,13,44,22.90
2007,08,29,13,45,22.90
2007,08,29,13,46,22.90
2007,08,29,13,47,22.80
2007,08,29,13,48,22.80
2007,08,29,13,49,22.80
2007,08,29,13,50,22.80
2007,08,29,13,51,22.80
2007,08,29,13,52,22.90
2007,08,29,13,53,22.90
2007,08,29,13,54,23.00
2007,08,29,13,55,23.10
2007,08,29,13,56,23.20
2007,08,29,13,57,23.30
2007,08,29,13,58,23.30
2007,08,29,13,59,23.30
2007,08,29,14,00,23.40
2007,08,29,14,01,23.40
2007,08,29,14,02,23.40
2007,08,29,14,03,23.40
2007,08,29,14,04,23.40
2007,08,29,14,05,23.30
2007,08,29,14,06,23.20
2007,08,29,14,07,23.10
2007,08,29,14,08,23.20
2007,08,29,14,09,23.20
2007,08,29,14,10,23.20
2007,08,29,14,11,23.30
2007,08,29,14,12,23.30
2007,08,29,14,13,23.30
2007,08,29,14,14,23.30
2007,08,29,14,15,23.40
2007,08,29,14,16,23.50
2007,08,29,14,17,23.50
2007,08,29,14,18,23.60
2007,08,29,14,19,23.70
2007,08,29,14,20,23.70
2007,08,29,14,21,23.70
2007,08,29,14,22,23.60
2007,08,29,14,23,23.70
2007,08,29,14,24,23.70
2007,08,29,14,25,23.70
2007,08,29,14,26,23.70
2007,08,29,14,27,23.70
2007,08,29,14,28,23.70
2007,08,29,14,29,23.70
2007,08,29,14,30,23.70
2007,08,29,14,31,23.70
2007,08,29,14,32,23.70
2007,08,29,14,33,23.70
2007,08,29,14,34,23.70
2007,08,29,14,35,23.70
2007,08,29,14,36,23.60
2007,08,29,14,37,23.60
2007,08,29,14,38,23.60
2007,08,29,14,39,23.60
2007,08,29,14,40,23.70
2007,08,29,14,41,23.70
2007,08,29,14,42,23.70
2007,08,29,14,43,23.70
2007,08,29,14,44,23.70
2007,08,29,14,45,23.70
2007,08,29,14,46,23.70
2007,08,29,14,47,23.80
2007,08,29,14,48,23.90
2007,08,29,14,49,24.00
2007,08,29,14,50,24.10
2007,08,29,14,51,24.20
2007,08,29,14,52,24.20
2007,08,29,14,53,24.20
2007,08,29,14,54,24.30
2007,08,29,14,55,24.30
2007,08,29,14,56,24.40
2007,08,29,14,57,24.40
2007,08,29,14,58,24.50
2007,08,29,14,59,24.50
2007,08,29,15,00,24.50
2007,08,29,15,01,24.50
2007,08,29,15,02,24.30
2007,08,29,15,03,24.30
2007,08,29,15,04,24.30
2007,08,29,15,05,24.30
2007,08,29,15,06,24.30
2007,08,29,15,07,24.30
2007,08,29,15,08,24.30
2007,08,29,15,09,24.20
2007,08,29,15,10,24.20
2007,08,29,15,11,24.10
2007,08,29,15,12,24.20
2007,08,29,15,13,24.20
2007,08,29,15,14,24.20
2007,08,29,15,15,24.30
2007,08,29,15,16,24.40
2007,08,29,15,17,24.50
2007,08,29,15,18,24.50
2007,08,29,15,19,24.60
2007,08,29,15,20,24.60
2007,08,29,15,21,24.60
2007,08,29,15,22,24.60
2007,08,29,15,23,24.50
2007,08,29,15,24,24.50
2007,08,29,15,25,24.60
2007,08,29,15,26,24.60
2007,08,29,15,27,24.70
2007,08,29,15,28,24.70
2007,08,29,15,29,24.70
2007,08,29,15,30,24.70
2007,08,29,15,31,24.80
2007,08,29,15,32,24.90
2007,08,29,15,33,24.90
2007,08,29,15,34,24.80
2007,08,29,15,35,24.70
2007,08,29,15,36,24.70
2007,08,29,15,37,24.70
2007,08,29,15,38,24.80
2007,08,29,15,39,25.00
2007,08,29,15,40,25.00
2007,08,29,15,41,25.10
2007,08,29,15,42,25.10
2007,08,29,15,43,25.10
2007,08,29,15,44,25.10
2007,08,29,15,45,25.10
2007,08,29,15,46,25.20
2007,08,29,15,47,25.20
2007,08,29,15,48,25.30
2007,08,29,15,49,25.30
2007,08,29,15,50,25.40
2007,08,29,15,51,25.30
2007,08,29,15,52,25.20
2007,08,29,15,53,25.10
2007,08,29,15,54,25.00
2007,08,29,15,55,24.90
2007,08,29,15,56,24.90
2007,08,29,15,57,25.00
2007,08,29,15,58,25.10
2007,08,29,15,59,25.10
2007,08,29,16,00,25.10
2007,08,29,16,01,25.20
2007,08,29,16,02,25.30
2007,08,29,16,03,25.40
2007,08,29,16,04,25.50
2007,08,29,16,05,25.60
2007,08,29,16,06,25.70
2007,08,29,16,07,25.70
2007,08,29,16,08,25.80
2007,08,29,16,09,25.80
2007,08,29,16,10,25.90
2007,08,29,16,11,25.90
2007,08,29,16,12,26.00
2007,08,29,16,13,25.90
2007,08,29,16,14,26.00
2007,08,29,16,15,26.10
2007,08,29,16,16,26.10
2007,08,29,16,17,26.10
2007,08,29,16,18,26.20
2007,08,29,16,19,26.20
2007,08,29,16,20,26.20
2007,08,29,16,21,26.20
2007,08,29,16,22,26.30
2007,08,29,16,23,26.20
2007,08,29,16,24,26.10
2007,08,29,16,25,26.00
2007,08,29,16,26,25.90
2007,08,29,16,27,25.90
2007,08,29,16,28,25.90
2007,08,29,16,29,25.90
2007,08,29,16,30,25.90
2007,08,29,16,31,25.80
2007,08,29,16,32,25.70
2007,08,29,16,33,25.60
2007,08,29,16,34,25.50
2007,08,29,16,35,25.40
2007,08,29,16,36,25.40
2007,08,29,16,37,25.40
2007,08,29,16,38,25.50
2007,08,29,16,39,25.40
2007,08,29,16,40,25.40
2007,08,29,16,41,25.40
2007,08,29,16,42,25.40
2007,08,29,16,43,25.40
2007,08,29,16,44,25.30
2007,08,29,16,45,25.10
2007,08,29,16,46,25.10
2007,08,29,16,47,25.00
2007,08,29,16,48,25.00
2007,08,29,16,49,25.00
2007,08,29,16,50,25.00
2007,08,29,16,51,24.90
2007,08,29,16,52,24.90
2007,08,29,16,53,24.90
2007,08,29,16,54,24.80
2007,08,29,16,55,24.80
2007,08,29,16,56,24.70
2007,08,29,16,57,24.80
2007,08,29,16,58,24.80
2007,08,29,16,59,24.80
2007,08,29,17,00,24.90
2007,08,29,17,01,24.90
2007,08,29,17,02,24.90
2007,08,29,17,03,25.00
2007,08,29,17,04,25.00
2007,08,29,17,05,25.00
2007,08,29,17,06,24.90
2007,08,29,17,07,24.90
2007,08,29,17,08,24.80
2007,08,29,17,09,24.70
2007,08,29,17,10,24.60
2007,08,29,17,11,24.60
2007,08,29,17,12,24.60
2007,08,29,17,13,24.60
2007,08,29,17,14,24.60
2007,08,29,17,15,24.60
2007,08,29,17,16,24.70
2007,08,29,17,17,24.80
2007,08,29,17,18,24.80
2007,08,29,17,19,24.80